Starlink 33730

operational
NORAD ID: 63439 Int'l Des: 2025-069 Owner: SPXS Country: US Constellation: starlink
LEOCIRCULAR

Über Starlink 33730

Beschreibung wird geladen...

Live-Position

3D-Globus wird geladen...

Nächste Überflüge

Höhenverlauf

Altitude vs Time

uPlot chart will show altitude changes over time

Zweizeiliger Elementsatz

1 63439U 25069G 26035.93557105 .00031306 00000-0 10641-2 0 9995
2 63439 53.1592 294.3524 0001523 130.5048 229.6086 15.30217834 48394
Epoch: 4. Feb. 2026 • Age: 19 hours

Aktueller Status

Höhe 479.8 km
Geschwindigkeit 7.63 km/s
Subsatellitenpunkt -14.37°S, 113.93°W
Startdatum 4. Apr. 2025
Alter 0.8 years
Typ internet

Technische Details

Klassifizierung Payload
Masse 575.00 kg
Trockenmasse 530.00 kg
Gesamtmasse 575.00 kg
Länge 0.30 m
Durchmesser 4.10 m
Spannweite 29.00 m
Form Box + pan
Hersteller SPXS
Bus-Typ Starlink V2MO
Phasenstatus In Orbit
Besitzer/Staat SPXS/US

Große Konstellationen

Loading constellations...